GW1107 Weather Reports


time (UTC)temp
C
wind
direction
speed
KPH
gust
KPH
rain 1hr
cm
rain 24hr
cm
rain mn
cm
humidity
%
barometer
mb
20260507161540 4 0 0.0 1.6 0.00 0.81 0.03 89 1016.7
20260507160057 3 0 0.0 1.6 0.00 0.81 0.03 90 1016.7
20260507154536 3 94 0.0 1.6 0.00 0.81 0.03 91 1016.7
20260507153035 2 153 0.0 1.6 0.00 0.81 0.03 91 1016.5
20260507151531 2 0 0.0 1.6 0.00 0.81 0.03 91 1016.7
20260507150038 2 0 0.0 0.0 0.00 0.81 0.03 90 1016.7
20260507144535 2 0 0.0 0.0 0.00 0.81 0.03 90 1016.5
20260507143035 -17 0 0.0 0.0 0.00 0.81 0.03 1016.5
20260507141537 2 172 0.0 1.6 0.00 0.81 0.03 87 1016.6
20260507140041 2 0 0.0 3.2 0.00 0.81 0.03 87 1016.6
20260507134536 2 0 0.0 1.6 0.00 0.81 0.03 88 1016.7
20260507133036 2 0 0.0 0.0 0.00 0.81 0.03 88 1016.8
20260507131605 2 78 0.0 1.6 0.00 0.81 0.03 88 1016.6
20260507130035 3 0 0.0 3.2 0.00 0.81 0.03 87 1016.5
20260507124532 2 0 0.0 1.6 0.00 0.81 0.03 87 1016.4
20260507123041 3 0 0.0 3.2 0.00 0.81 0.03 88 1016.3
20260507121536 3 94 0.0 1.6 0.00 0.81 0.03 87 1016.4
20260507120040 3 0 1.6 6.4 0.00 0.81 0.03 84 1016.3
20260507114536 2 0 1.6 6.4 0.00 0.81 0.03 88 1016.3
20260507113100 2 0 0.0 1.6 0.00 0.81 0.03 94 1016.3
20260507111534 2 0 0.0 1.6 0.00 0.81 0.03 94 1016.3
20260507110040 2 94 0.0 3.2 0.00 0.81 0.03 93 1016.3
20260507104539 2 0 0.0 1.6 0.00 0.81 0.03 93 1016.4
20260507103036 2 0 0.0 0.0 0.00 0.81 0.03 92 1016.4
20260507101535 2 0 0.0 1.6 0.00 0.81 0.03 91 1016.4
20260507100044 3 0 0.0 1.6 0.00 0.81 0.03 90 1016.4
20260507094531 3 0 0.0 1.6 0.00 0.81 0.03 90 1016.4
20260507093040 3 219 0.0 3.2 0.00 0.81 0.03 92 1016.2
20260507091539 3 174 1.6 3.2 0.00 0.81 0.03 93 1016.2
20260507090035 3 0 0.0 1.6 0.00 0.81 0.03 92 1016.0
20260507084549 3 180 0.0 4.8 0.00 0.81 0.03 92 1015.9
20260507083031 3 0 0.0 1.6 0.00 0.81 0.03 93 1015.8
20260507081530 3 0 0.0 4.8 0.13 0.81 0.03 93 1015.8
20260507080035 3 160 1.6 3.2 0.18 0.79 0.00 93 1015.7
20260507074532 3 165 0.0 6.4 0.23 0.79 0.79 93 1015.6
20260507073030 3 199 0.0 1.6 0.23 0.74 0.74 93 1015.6
20260507071537 3 0 0.0 3.2 0.20 0.69 0.69 93 1015.5
20260507070033 4 0 0.0 1.6 0.18 0.61 0.61 93 1015.4
20260507064533 4 203 0.0 0.0 0.15 0.56 0.56 93 1015.3
20260507063037 4 203 0.0 3.2 0.13 0.51 0.51 93 1015.2
20260507061538 4 210 0.0 3.2 0.10 0.48 0.48 92 1015.1
20260507060043 5 88 0.0 1.6 0.05 0.43 0.43 92 1014.9
20260507054543 5 0 0.0 4.8 0.05 0.41 0.41 91 1014.6
20260507053038 4 207 0.0 1.6 0.15 0.38 0.38 92 1014.6
20260507051536 4 191 0.0 1.6 0.20 0.38 0.38 92 1014.4
20260507050058 4 40 0.0 4.8 0.30 0.38 0.38 91 1014.4
20260507044545 4 207 6.4 19.3 0.28 0.33 0.33 91 1014.6
20260507043040 4 208 1.6 11.3 0.18 0.23 0.23 90 1014.4
20260507041544 5 146 1.6 12.9 0.15 0.18 0.18 89 1014.4
20260507040036 5 229 3.2 8.0 0.08 0.08 0.08 86 1014.2
20260507034540 6 184 0.0 1.6 0.05 0.05 0.05 88 1014.0
20260507033041 6 0 0.0 4.8 0.05 0.05 0.05 85 1013.6
20260507031602 7 211 0.0 3.2 0.03 0.03 0.03 81 1013.5
20260507030036 7 0 1.6 4.8 0.00 0.00 0.00 77 1013.3
20260507024540 7 188 0.0 3.2 0.00 0.00 0.00 76 1013.3
20260507023032 7 200 0.0 1.6 0.00 0.00 0.00 82 1013.2
20260507021547 7 0 0.0 4.8 0.00 0.00 0.00 84 1013.0
20260507020035 7 226 1.6 6.4 0.00 0.00 0.00 79 1013.1
20260507014532 7 240 1.6 4.8 0.00 0.00 0.00 83 1013.0
20260507013035 7 278 1.6 4.8 0.00 0.00 0.00 80 1013.1
20260507011536 7 202 3.2 9.7 0.00 0.00 0.00 79 1013.1
20260507010040 8 236 1.6 9.7 0.00 0.00 0.00 77 1013.0
20260507004530 8 151 1.6 6.4 0.00 0.00 0.00 78 1012.9
20260507003035 8 219 1.6 11.3 0.00 0.00 0.00 78 1012.8
20260507001533 8 246 1.6 8.0 0.00 0.00 0.00 76 1012.7
20260507000034 8 252 1.6 12.9 0.00 0.00 0.00 76 1012.8
20260506234530 8 247 1.6 8.0 0.00 0.00 0.00 75 1012.6
20260506233036 8 270 3.2 9.7 0.00 0.00 0.00 75 1012.5
20260506231535 8 298 4.8 11.3 0.00 0.00 0.00 75 1012.4
20260506230034 8 347 4.8 11.3 0.00 0.00 0.00 74 1012.3
20260506224533 8 274 1.6 11.3 0.00 0.00 0.00 71 1012.2
20260506223030 8 223 3.2 14.5 0.00 0.00 0.00 68 1012.2
20260506221535 8 203 6.4 14.5 0.00 0.00 0.00 65 1012.0
20260506220036 8 131 4.8 14.5 0.00 0.00 0.00 65 1011.9
20260506214534 8 283 1.6 8.0 0.00 0.00 0.00 68 1011.9
20260506213032 8 356 1.6 8.0 0.00 0.00 0.00 69 1011.7
20260506211533 8 270 4.8 11.3 0.00 0.00 0.00 70 1011.7
20260506210038 9 14 1.6 8.0 0.00 0.00 0.00 67 1011.6
20260506204548 9 302 3.2 6.4 0.00 0.00 0.00 68 1011.5
20260506203034 8 218 3.2 8.0 0.00 0.00 0.00 72 1011.5
20260506201534 8 233 3.2 8.0 0.00 0.00 0.00 73 1011.3
20260506200034 8 165 1.6 8.0 0.00 0.00 0.00 72 1011.2
20260506194542 7 0 1.6 8.0 0.00 0.00 0.00 73 1011.2
20260506193034 7 333 0.0 8.0 0.00 0.00 0.00 74 1011.1
20260506191534 8 229 1.6 6.4 0.00 0.00 0.00 72 1011.1
20260506190033 7 25 0.0 6.4 0.00 0.00 0.00 72 1011.0
20260506184530 7 49 1.6 3.2 0.00 0.00 0.00 72 1010.9
20260506183033 7 71 1.6 3.2 0.00 0.00 0.00 74 1010.9
20260506181536 7 351 0.0 3.2 0.00 0.00 0.00 74 1010.8
20260506180036 6 0 0.0 3.2 0.00 0.00 0.00 76 1010.7
20260506174535 6 197 0.0 3.2 0.00 0.00 0.00 76 1010.6
20260506173033 6 0 0.0 3.2 0.00 0.00 0.00 76 1010.6
20260506171540 6 6 0.0 1.6 0.00 0.00 0.00 78 1010.5
20260506170035 6 0 0.0 1.6 0.00 0.00 0.00 78 1010.4
20260506164530 5 0 0.0 1.6 0.00 0.00 0.00 79 1010.3
20260506163036 5 0 0.0 4.8 0.00 0.00 0.00 80 1010.2